Skip Page Navigation
NASA JPL Caltech
NASA Logo - Jet Propulsion Laboratory + View the NASA Portal
+ Near-Earth Object (NEO) Program
Search JPL
JPL Home Earth Solar System Stars & Galaxies Technology
JPL Solar System Dynamics
BODIES ORBITS EPHEMERIDES TOOLS PHYSICAL DATA DISCOVERY FAQ SITE MAP
JPL Small-Body Database Browser
Search: [ help ]  
(2004 VB)
Classification: Apollo [NEO, PHA]          SPK-ID: 3261133
Ephemeris | Orbit Diagram | Orbital Elements | Physical Parameters | Close-Approach Data ]

[ hide orbit diagram ]
Orbit Diagram
Note: Make sure you have Java enabled on your browser to see the applet. This applet is provided as a 3D orbit visualization tool. The applet was implemented using 2-body methods, and hence should not be used for determining accurate long-term trajectories (over several years or decades) or planetary encounter circumstances. For accurate long-term ephemerides, please instead use our Horizons system.
Orbit Viewer

Additional Notes: the orbits shown in the applet are color coded. The planets are white lines, and the asteroid/comet is a blue line. The bright white line indicates the portion of the orbit that is above the ecliptic plane, and the darker portion is below the ecliptic plane. Likewise for the asteroid/comet orbit, the light blue indicates the portion above the ecliptic plane, and the dark blue the portion below the ecliptic plane.

Orbit Viewer applet originally written and kindly provided by Osamu Ajiki (AstroArts), and further modified by Ron Baalke (JPL).


Orbital Elements at Epoch 2456400.5 (2013-Apr-18.0) TDB
Reference: JPL 51 (heliocentric ecliptic J2000)
 Element Value Uncertainty (1-sigma)   Units 
e .4090350922189293 5.4886e-08  
a 1.458419639700016 8.0051e-09 AU
q .8618748278814224 7.569e-08 AU
i 10.8613117558315 9.479e-06 deg
node 52.4442300051935 5.4643e-06 deg
peri 71.46677802253924 1.2352e-05 deg
M 248.2712248487543 1.6594e-05 deg
tp 2456600.157082180588
(2013-Nov-03.65708218)
3.1292e-05 JED
period 643.3127856965535
1.76
5.2966e-06
1.45e-08
d
yr
n .559603365585539 4.6074e-09 deg/d
Q 2.05496445151861 1.1279e-08 AU
  Orbit Determination Parameters
   # obs. used (total)      414  
   # delay obs. used      1  
   # Doppler obs. used      1  
   data-arc span      2757 days (7.55 yr)  
   first obs. used      2004-11-01  
   last obs. used      2012-05-20  
   planetary ephem.      DE405  
   SB-pert. ephem.      SB405-CPV-2  
   condition code      0  
   fit RMS      .565  
   data source      ORB  
   producer      Otto Matic  
   solution date      2012-May-22 00:50:52  

Additional Information
 Earth MOID = .0428405 AU 
 T_jup = 4.517 
[ show covariance matrix ]

Ephemeris | Orbit Diagram | Orbital Elements | Physical Parameters | Close-Approach Data ]

Physical Parameter Table
Parameter Symbol Value Units Sigma Reference Notes
absolute magnitude H 20.796 mag .50756 51 autocmod 2.5b

[ show close-approach data ]
Ephemeris | Orbit Diagram | Orbital Elements | Physical Parameters | Close-Approach Data ]
ABOUT SSD CREDITS/AWARDS PRIVACY/COPYRIGHT GLOSSARY LINKS
FirstGov 2013-May-20 16:13 UT
(server date/time)  
NASA Home Page
Site Manager:   Donald K. Yeomans
Webmaster  Alan B. Chamberlin